Regional Weather Roundup
Issued by NWS Charleston, SC

Current Version | Previous Version | Text Only | Print | Product List | Glossary Off
Versions: 1 2 3 4 5 6 7 8 9 10 11 12 13 14 15 16 17 18 19 20 21 22 23 24 25 26 27 28 29 30 31 32 33 34 35 36 37 38 39 40 41 42 43 44 45 46 47 48 49 50
000 ASUS42 KCHS 252127 RWRCHS REGIONAL WEATHER ROUNDUP NATIONAL WEATHER SERVICE CHARLESTON SC 500 PM EDT SUN JUN 25 2017 NOTE: "FAIR" INDICATES FEW OR NO CLOUDS BELOW 12,000 FEET WITH NO SIGNIFICANT WEATHER AND/OR OBSTRUCTIONS TO VISIBILITY. NOT ALL STATIONS ARE QUALITY CONTROLLED. USE DATA WITH CAUTION... ESPECIALLY DEWPOINT OBSERVATIONS. SCZ027-030-031-034>040-042>050-252200- ...SOUTHEAST SOUTH CAROLINA... CITY SKY/WX TMP DP RH WIND PRES REMARKS N CHARLESTON TSTM 74 72 93 NE7 30.05F FOG WATERFRONT PRK N/A 82 77 84 VRB3 30.04R HX 90 JOHNS ISLAND RAIN 75 75 100 N10 30.05S PINOPOLIS NOT AVBL MONCKS CORNER RAIN 73 73 100 S3 30.06F SUMMERVILLE LGT RAIN 73 72 94 CALM 30.06F BEAUFORT MCAS CLOUDY 75 74 96 CALM 30.04S BEAUFORT ARPT FAIR 75 73 94 N5 30.04R HILTON HEAD IS CLOUDY 75 73 94 S7 30.03F WALTERBORO CLOUDY 73 73 100 CALM 30.05F ALLENDALE FAIR 77 75 94 CALM 30.04R ...SOUTHERN MIDLANDS AND PEE DEE... CITY SKY/WX TMP DP RH WIND PRES REMARKS GEORGETOWN TSTM 72 72 100 SW5 30.08R KINGSTREE LGT RAIN 79 73 83 S5 30.05R ORANGEBURG LGT RAIN 79 75 87 S3 30.05R BARNWELL HVY RAIN 73 73 100 SE8 30.07R VSB 3/4 AIKEN FAIR 86 68 54 N8 30.07S MANNING FAIR 79 73 83 S10G16 30.05R COLUMBIA MOSUNNY 91 68 46 NE8 30.02S HX 95 SUMTER PTSUNNY 88 72 60 E6 30.01S HX 94 FLORENCE CLOUDY 87 72 60 N6 30.03S HX 93 MYRTLE BEACH LGT RAIN 82 72 69 W7 30.04R N MYRTLE BEACH PTSUNNY 83 74 74 SW10 30.03R $$ GAZ063-065-086>088-099>101-113>116-118-119-134>141-150-252200- ...SOUTHEAST GEORGIA... CITY SKY/WX TMP DP RH WIND PRES REMARKS SAVANNAH ARPT CLOUDY 77 73 87 E3 30.05R HUNTER AAF CLOUDY 78 74 89 CALM 30.02R FORT STEWART LGT RAIN 77 73 88 NW7 30.02R STATESBORO CLOUDY 83 82 98 NW8 30.05R HX 98 SYLVANIA RAIN 77 76 96 N5 30.06R CLAXTON MOCLDY 77 75 94 CALM 30.05R ...CSRA...CENTRAL AND FAR SOUTHEAST GEORGIA... CITY SKY/WX TMP DP RH WIND PRES REMARKS THOMSON SUNNY 86 67 52 N7 30.11R AUGUSTA-BUSH MOSUNNY 93 64 38 N8 30.01S HX 94 AUGUSTA-DANIEL SUNNY 91 60 35 NW10 30.04S HX 90 SWAINSBORO FAIR 84 73 70 E6 30.05R HX 91 VIDALIA CLOUDY 81 77 89 SE3 30.05R EASTMAN MOCLDY 87 58 37 W5 30.08R HAZLEHURST RAIN 79 76 92 E5 30.06R ALMA CLOUDY 81 69 67 W13 30.06R WAYCROSS CLOUDY 85 82 88 W10 30.05S HX 102 JESUP CLOUDY 79 70 73 N9 30.04R BAXLEY PTSUNNY 81 81 100 W3 30.04F HX 91 BRUNSWICK CLOUDY 81 79 94 NW3 30.05R SAINT SIMONS CLOUDY 84 78 82 S10G20 30.01F HX 95 $$ SCZ027-028-034-036>038-045-046-048>050-GAZ119-141-252200- ...LAKE AND SUPPLEMENTAL COASTAL OBSERVATIONS... STATION/POSITION TIME TEMP WIND PRES WAVE SWELL AIR SEA DIR/SP/G HT/PER HT/PER/DIR (UTC) (F) (DEG/KT/KT) (MB) (FT/S) (FT/S/D) WINYAH BAY 2030 75 170/ 11 1018.0R LAKE MURRAY 2030 86 CALM / 8 1015.9S ACE BASIN NERRS 2030 74 300/ 1 1018.0S FORT PULASKI 2100 77 85 140/ 4/ 5 1017.2 SAPELO ISLAND 2100 82 300/ 17 1017.0 $$ ANZ835-935-AMZ111-154-330-350-352-354-370-450-454-472-252200- ...C-MAN AND BUOY OBSERVATIONS... STATION/POSITION TIME TEMP WIND PRES WAVE SWELL AIR SEA DIR/SP/G HT/PER HT/PER/DIR (UTC) (F) (DEG/KT/KT) (MB) (FT/S) (FT/S/D) BUOY 41004 2110 80 81 230/ 10/ 12 1017.1 BUOY 41008 2050 82 83 160/ 17/ 19 1015.8F 2/ 8 2/100/ 8 FOLLY BEACH CMAN 2100 78 350/ 9/ 13 1018.4R CAPERS NEARSHORE 2108 81 84 340/ 14/ 19 1017.9R FRIPP NEARSHORE 2108 79 84 250/ 6/ 10 1016.5F STATION/POSITION TIME TEMP WIND PRES WAVE SWELL AIR SEA DIR/SP/G HT/PER HT/PER/DIR (UTC) (F) (DEG/KT/KT) (MB) (FT/S) (FT/S/D) 5E ST. MARYS GA 2100 82 N/A 3/ 4 FRYING PAN BUOY 2110 81 81 250/ 10/ 12 1017.0 BUOY 41025 2050 79 81 240/ 8/ 10 1016.2F 4/ 5 3/210/ 5 CAPE LOOKOUT NC 2100 80 220/ 8/ 11 1015.9F BUOY 41002 2050 81 81 220/ 12/ 14 1019.3F 4/ 6 2/230/ 6 BUOY 41010 2110 83 84 180/ 8/ 10 1018.6 ST AUGUSTINE FL 2100 79 81 140/ 8/ 9 1017.3F $$

USA.gov is the U.S. government's official web portal to all federal, state and local government web resources and services.